Time,TemperatureF,DewpointF,PressureIn,WindDirection,WindDirectionDegrees,WindSpeedMPH,WindSpeedGustMPH,Humidity,HourlyPrecipIn,Conditions,Clouds,dailyrainin,SoftwareType,DateUTC
2013-02-14 00:00:00,42.8,36.1,29.98,SSW,203,1.8,2.5,77,0.00,,,0.00,WUHU216HW,2013-02-14 06:00:00,
2013-02-14 00:05:00,42.8,36.1,29.98,SW,225,1.8,3.1,77,0.00,,,0.00,WUHU216HW,2013-02-14 06:05:00,
2013-02-14 00:10:00,42.8,35.8,29.98,SSW,203,1.8,3.1,76,0.00,,,0.00,WUHU216HW,2013-02-14 06:10:00,
2013-02-14 00:15:00,42.8,36.1,29.98,SSW,203,1.8,2.5,77,0.00,,,0.00,WUHU216HW,2013-02-14 06:15:00,
2013-02-14 00:20:00,42.8,35.8,29.98,SSW,203,1.3,2.2,76,0.00,,,0.00,WUHU216HW,2013-02-14 06:20:00,
2013-02-14 00:25:00,42.8,36.1,29.98,SSW,203,2.5,2.5,77,0.00,,,0.00,WUHU216HW,2013-02-14 06:25:00,
2013-02-14 00:30:00,42.7,35.9,29.98,SSW,203,2.5,3.4,77,0.00,,,0.00,WUHU216HW,2013-02-14 06:30:00,
2013-02-14 00:35:00,42.5,35.7,29.98,SSW,203,2.5,3.4,77,0.00,,,0.00,WUHU216HW,2013-02-14 06:35:00,
2013-02-14 00:40:00,42.3,35.6,29.98,SW,225,2.7,3.4,77,0.00,,,0.00,WUHU216HW,2013-02-14 06:40:00,
2013-02-14 00:45:00,42.3,35.6,29.98,SW,225,2.5,2.7,77,0.00,,,0.00,WUHU216HW,2013-02-14 06:45:00,
2013-02-14 00:50:00,42.3,35.6,29.98,SW,225,1.6,2.7,77,0.00,,,0.00,WUHU216HW,2013-02-14 06:50:00,
2013-02-14 00:55:00,42.3,35.6,29.98,SSW,203,2.2,2.5,77,0.00,,,0.00,WUHU216HW,2013-02-14 06:55:00,
2013-02-14 01:00:00,42.3,35.6,29.98,SW,225,2.2,3.4,77,0.00,,,0.00,WUHU216HW,2013-02-14 07:00:00,
2013-02-14 01:05:00,42.1,35.4,29.98,SW,225,1.8,3.4,77,0.00,,,0.00,WUHU216HW,2013-02-14 07:05:00,
2013-02-14 01:10:00,42.1,35.4,29.98,SW,225,2.2,3.1,77,0.00,,,0.00,WUHU216HW,2013-02-14 07:10:00,
2013-02-14 01:15:00,42.1,35.4,29.98,WSW,248,0.9,3.1,77,0.00,,,0.00,WUHU216HW,2013-02-14 07:15:00,
2013-02-14 01:20:00,42.1,35.4,29.98,WSW,248,1.8,2.9,77,0.00,,,0.00,WUHU216HW,2013-02-14 07:20:00,
2013-02-14 01:25:00,41.9,35.6,29.98,SW,225,2.5,2.5,78,0.00,,,0.00,WUHU216HW,2013-02-14 07:25:00,
2013-02-14 01:30:00,41.6,35.2,29.98,SW,225,1.6,2.5,78,0.00,,,0.00,WUHU216HW,2013-02-14 07:30:00,
2013-02-14 01:35:00,41.6,35.2,29.98,SW,225,2.5,2.5,78,0.00,,,0.00,WUHU216HW,2013-02-14 07:35:00,
2013-02-14 01:40:00,41.4,35.3,29.98,SW,225,0.9,2.5,79,0.00,,,0.00,WUHU216HW,2013-02-14 07:40:00,
2013-02-14 01:45:00,41.4,35.3,29.98,SW,225,1.3,2.5,79,0.00,,,0.00,WUHU216HW,2013-02-14 07:45:00,
2013-02-14 01:50:00,41.4,35.3,29.98,SW,225,2.0,2.5,79,0.00,,,0.00,WUHU216HW,2013-02-14 07:50:00,
2013-02-14 01:55:00,41.4,35.3,29.98,SW,225,3.1,3.4,79,0.00,,,0.00,WUHU216HW,2013-02-14 07:55:00,
2013-02-14 02:00:00,41.4,35.3,29.98,SW,225,2.5,3.4,79,0.00,,,0.00,WUHU216HW,2013-02-14 08:00:00,
2013-02-14 02:05:00,41.2,35.1,29.98,SW,225,2.7,3.4,79,0.00,,,0.00,WUHU216HW,2013-02-14 08:05:00,
2013-02-14 02:10:00,41.0,34.9,29.98,SW,225,2.5,3.4,79,0.00,,,0.00,WUHU216HW,2013-02-14 08:10:00,
2013-02-14 02:15:00,41.0,34.9,29.98,SW,225,2.0,3.4,79,0.00,,,0.00,WUHU216HW,2013-02-14 08:15:00,
2013-02-14 02:20:00,41.0,34.9,29.98,SW,225,2.0,3.4,79,0.00,,,0.00,WUHU216HW,2013-02-14 08:20:00,
2013-02-14 02:25:00,40.9,34.8,29.98,SW,225,2.2,3.4,79,0.00,,,0.00,WUHU216HW,2013-02-14 08:25:00,
2013-02-14 02:30:00,40.9,34.8,29.98,SW,225,2.2,3.4,79,0.00,,,0.00,WUHU216HW,2013-02-14 08:30:00,
2013-02-14 02:35:00,40.9,34.8,29.98,SW,225,1.3,2.7,79,0.00,,,0.00,WUHU216HW,2013-02-14 08:35:00,
2013-02-14 02:40:00,40.7,34.7,29.97,SSW,203,1.3,2.5,79,0.00,,,0.00,WUHU216HW,2013-02-14 08:40:00,
2013-02-14 02:45:00,40.7,34.9,29.98,SW,225,1.3,2.0,80,0.00,,,0.00,WUHU216HW,2013-02-14 08:45:00,
2013-02-14 02:50:00,40.7,34.9,29.98,SSW,203,1.6,1.8,80,0.00,,,0.00,WUHU216HW,2013-02-14 08:50:00,
2013-02-14 02:55:00,40.5,34.8,29.98,SSW,203,1.8,2.0,80,0.00,,,0.00,WUHU216HW,2013-02-14 08:55:00,
2013-02-14 03:00:00,40.5,35.1,29.98,SSW,203,1.8,2.0,81,0.00,,,0.00,WUHU216HW,2013-02-14 09:00:00,
2013-02-14 03:05:00,40.5,35.1,29.97,SSW,203,1.1,2.0,81,0.00,,,0.00,WUHU216HW,2013-02-14 09:05:00,
2013-02-14 03:10:00,40.5,34.8,29.98,SSW,203,0.7,2.0,80,0.00,,,0.00,WUHU216HW,2013-02-14 09:10:00,
2013-02-14 03:15:00,40.5,34.8,29.97,SSW,203,1.1,1.8,80,0.00,,,0.00,WUHU216HW,2013-02-14 09:15:00,
2013-02-14 03:20:00,40.5,34.8,29.98,SSW,203,1.8,1.8,80,0.00,,,0.00,WUHU216HW,2013-02-14 09:20:00,
2013-02-14 03:25:00,40.3,34.9,29.97,SSW,203,2.0,2.2,81,0.00,,,0.00,WUHU216HW,2013-02-14 09:25:00,
2013-02-14 03:30:00,40.3,34.9,29.98,SW,225,1.1,2.2,81,0.00,,,0.00,WUHU216HW,2013-02-14 09:30:00,
2013-02-14 03:35:00,40.1,34.5,29.98,SW,225,0.4,2.0,80,0.00,,,0.00,WUHU216HW,2013-02-14 09:35:00,
2013-02-14 03:40:00,40.1,34.5,29.97,SW,225,1.1,1.6,80,0.00,,,0.00,WUHU216HW,2013-02-14 09:40:00,
2013-02-14 03:45:00,40.0,34.3,29.98,SSW,203,1.1,1.6,80,0.00,,,0.00,WUHU216HW,2013-02-14 09:45:00,
2013-02-14 03:50:00,40.0,34.3,29.97,SSW,203,0.9,1.6,80,0.00,,,0.00,WUHU216HW,2013-02-14 09:50:00,
2013-02-14 03:55:00,40.0,34.3,29.97,South,180,1.3,1.3,80,0.00,,,0.00,WUHU216HW,2013-02-14 09:55:00,
2013-02-14 04:00:00,40.0,34.3,29.97,South,180,1.6,1.6,80,0.00,,,0.00,WUHU216HW,2013-02-14 10:00:00,
2013-02-14 04:05:00,39.8,34.1,29.97,SSW,203,1.3,1.8,80,0.00,,,0.00,WUHU216HW,2013-02-14 10:05:00,
2013-02-14 04:10:00,39.6,34.0,29.97,SSW,203,1.8,2.0,80,0.00,,,0.00,WUHU216HW,2013-02-14 10:10:00,
2013-02-14 04:15:00,39.6,34.0,29.97,SSW,203,1.3,2.2,80,0.00,,,0.00,WUHU216HW,2013-02-14 10:15:00,
2013-02-14 04:20:00,39.4,33.9,29.97,South,180,1.3,2.2,80,0.00,,,0.00,WUHU216HW,2013-02-14 10:20:00,
2013-02-14 04:25:00,39.2,33.9,29.98,SSW,203,1.8,2.2,81,0.00,,,0.00,WUHU216HW,2013-02-14 10:25:00,
2013-02-14 04:30:00,39.2,33.9,29.98,SW,225,1.8,2.5,81,0.00,,,0.00,WUHU216HW,2013-02-14 10:30:00,
2013-02-14 04:35:00,39.1,33.8,29.98,SW,225,1.8,2.5,81,0.00,,,0.00,WUHU216HW,2013-02-14 10:35:00,
2013-02-14 04:40:00,38.9,33.6,29.98,SSW,203,2.5,2.7,81,0.00,,,0.00,WUHU216HW,2013-02-14 10:40:00,
2013-02-14 04:45:00,38.9,33.6,29.98,SSW,203,1.8,2.7,81,0.00,,,0.00,WUHU216HW,2013-02-14 10:45:00,
2013-02-14 04:50:00,38.7,33.4,29.98,SSW,203,2.0,3.4,81,0.00,,,0.00,WUHU216HW,2013-02-14 10:50:00,
2013-02-14 04:55:00,38.7,33.4,29.98,SSW,203,2.5,3.4,81,0.00,,,0.00,WUHU216HW,2013-02-14 10:55:00,
2013-02-14 05:00:00,38.7,33.7,29.98,SSW,203,2.2,3.1,82,0.00,,,0.00,WUHU216HW,2013-02-14 11:00:00,
2013-02-14 05:05:00,38.7,33.4,29.98,SSW,203,3.4,3.6,81,0.00,,,0.00,WUHU216HW,2013-02-14 11:05:00,
2013-02-14 05:10:00,38.7,33.7,29.98,SSW,203,2.9,3.8,82,0.00,,,0.00,WUHU216HW,2013-02-14 11:10:00,
2013-02-14 05:15:00,38.5,33.5,29.99,SSW,203,2.5,3.8,82,0.00,,,0.00,WUHU216HW,2013-02-14 11:15:00,
2013-02-14 05:20:00,38.5,33.5,29.99,SSW,203,2.0,3.4,82,0.00,,,0.00,WUHU216HW,2013-02-14 11:20:00,
2013-02-14 05:25:00,38.5,33.5,29.99,SSW,203,2.9,3.1,82,0.00,,,0.00,WUHU216HW,2013-02-14 11:25:00,
2013-02-14 05:30:00,38.5,33.5,29.99,SSW,203,2.7,3.1,82,0.00,,,0.00,WUHU216HW,2013-02-14 11:30:00,
2013-02-14 05:35:00,38.5,33.5,29.99,SSW,203,2.7,2.7,82,0.00,,,0.00,WUHU216HW,2013-02-14 11:35:00,
2013-02-14 05:40:00,38.5,33.5,29.99,SW,225,2.7,3.4,82,0.00,,,0.00,WUHU216HW,2013-02-14 11:40:00,
2013-02-14 05:45:00,38.5,33.5,29.99,SW,225,3.8,4.0,82,0.00,,,0.00,WUHU216HW,2013-02-14 11:45:00,
2013-02-14 05:50:00,38.5,33.9,29.99,SSW,203,4.3,4.9,83,0.00,,,0.00,WUHU216HW,2013-02-14 11:50:00,
2013-02-14 05:55:00,38.7,34.0,29.99,SSW,203,4.0,6.7,83,0.00,,,0.00,WUHU216HW,2013-02-14 11:55:00,
2013-02-14 06:00:00,38.9,34.5,29.99,SW,225,4.7,6.7,84,0.00,,,0.00,WUHU216HW,2013-02-14 12:00:00,
2013-02-14 06:05:00,39.2,34.6,29.99,SW,225,4.7,7.6,83,0.00,,,0.00,WUHU216HW,2013-02-14 12:05:00,
2013-02-14 06:10:00,39.2,34.6,29.99,SSW,203,3.4,7.6,83,0.00,,,0.00,WUHU216HW,2013-02-14 12:10:00,
2013-02-14 06:15:00,39.2,34.6,30.00,SW,225,4.9,6.9,83,0.00,,,0.00,WUHU216HW,2013-02-14 12:15:00,
2013-02-14 06:20:00,39.2,34.2,30.00,SSW,203,5.1,6.3,82,0.00,,,0.00,WUHU216HW,2013-02-14 12:20:00,
2013-02-14 06:25:00,39.4,34.4,30.01,WSW,248,3.8,6.3,82,0.00,,,0.00,WUHU216HW,2013-02-14 12:25:00,
2013-02-14 06:30:00,39.4,34.4,30.00,SW,225,4.7,5.4,82,0.00,,,0.00,WUHU216HW,2013-02-14 12:30:00,
2013-02-14 06:35:00,39.2,34.2,30.01,SSW,203,3.8,5.6,82,0.00,,,0.00,WUHU216HW,2013-02-14 12:35:00,
2013-02-14 06:40:00,39.2,34.2,30.01,SSW,203,3.4,5.6,82,0.00,,,0.00,WUHU216HW,2013-02-14 12:40:00,
2013-02-14 06:45:00,39.2,34.2,30.01,SSW,203,4.0,5.4,82,0.00,,,0.00,WUHU216HW,2013-02-14 12:45:00,
2013-02-14 06:50:00,39.1,34.0,30.01,SSW,203,3.1,5.1,82,0.00,,,0.00,WUHU216HW,2013-02-14 12:50:00,
2013-02-14 06:55:00,38.9,33.8,30.01,SSW,203,3.1,5.8,82,0.00,,,0.00,WUHU216HW,2013-02-14 12:55:00,
2013-02-14 07:00:00,38.9,33.8,30.01,SSW,203,2.2,5.8,82,0.00,,,0.00,WUHU216HW,2013-02-14 13:00:00,
2013-02-14 07:05:00,38.9,33.8,30.01,SSW,203,2.2,4.0,82,0.00,,,0.00,WUHU216HW,2013-02-14 13:05:00,
2013-02-14 07:10:00,38.9,33.8,30.01,South,180,2.5,4.0,82,0.00,,,0.00,WUHU216HW,2013-02-14 13:10:00,
2013-02-14 07:15:00,38.9,33.8,30.01,SSW,203,1.8,3.4,82,0.00,,,0.00,WUHU216HW,2013-02-14 13:15:00,
2013-02-14 07:20:00,39.2,34.2,30.01,South,180,2.0,3.1,82,0.00,,,0.00,WUHU216HW,2013-02-14 13:20:00,
2013-02-14 07:25:00,39.4,34.4,30.01,South,180,2.5,3.1,82,0.00,,,0.00,WUHU216HW,2013-02-14 13:25:00,
2013-02-14 07:30:00,39.6,34.6,30.02,SSW,203,2.0,3.1,82,0.00,,,0.00,WUHU216HW,2013-02-14 13:30:00,
2013-02-14 07:35:00,40.0,34.9,30.02,SSW,203,2.9,3.4,82,0.00,,,0.00,WUHU216HW,2013-02-14 13:35:00,
2013-02-14 07:40:00,40.1,35.1,30.02,South,180,1.3,3.4,82,0.00,,,0.00,WUHU216HW,2013-02-14 13:40:00,
2013-02-14 07:45:00,40.5,35.4,30.02,SSE,158,2.0,2.7,82,0.00,,,0.00,WUHU216HW,2013-02-14 13:45:00,
2013-02-14 07:50:00,40.7,35.6,30.02,SSE,158,1.8,2.7,82,0.00,,,0.00,WUHU216HW,2013-02-14 13:50:00,
2013-02-14 07:55:00,40.9,35.7,30.02,South,180,2.5,2.7,82,0.00,,,0.00,WUHU216HW,2013-02-14 13:55:00,
2013-02-14 08:00:00,41.2,36.1,30.02,South,180,4.0,4.0,82,0.00,,,0.00,WUHU216HW,2013-02-14 14:00:00,
2013-02-14 08:05:00,41.4,36.3,30.02,SSW,203,3.1,4.3,82,0.00,,,0.00,WUHU216HW,2013-02-14 14:05:00,
2013-02-14 08:10:00,41.9,36.8,30.02,SSW,203,2.5,4.3,82,0.00,,,0.00,WUHU216HW,2013-02-14 14:10:00,
2013-02-14 08:15:00,42.5,37.0,30.02,South,180,4.5,4.9,81,0.00,,,0.00,WUHU216HW,2013-02-14 14:15:00,
2013-02-14 08:20:00,42.8,37.4,30.03,South,180,2.5,4.9,81,0.00,,,0.00,WUHU216HW,2013-02-14 14:20:00,
2013-02-14 08:25:00,43.0,37.5,30.03,SSE,158,2.5,4.5,81,0.00,,,0.00,WUHU216HW,2013-02-14 14:25:00,
2013-02-14 08:30:00,43.6,38.1,30.03,SSW,203,3.1,3.6,81,0.00,,,0.00,WUHU216HW,2013-02-14 14:30:00,
2013-02-14 08:35:00,44.1,38.3,30.03,SSE,158,3.8,4.7,80,0.00,,,0.00,WUHU216HW,2013-02-14 14:35:00,
2013-02-14 08:40:00,44.5,38.3,30.04,South,180,4.0,6.7,79,0.00,,,0.00,WUHU216HW,2013-02-14 14:40:00,
2013-02-14 08:45:00,45.0,38.5,30.04,SW,225,5.4,7.2,78,0.00,,,0.00,WUHU216HW,2013-02-14 14:45:00,
2013-02-14 08:50:00,45.4,38.6,30.04,SW,225,2.9,7.2,77,0.00,,,0.00,WUHU216HW,2013-02-14 14:50:00,
2013-02-14 08:55:00,46.1,39.3,30.04,SW,225,6.7,6.7,77,0.00,,,0.00,WUHU216HW,2013-02-14 14:55:00,
2013-02-14 09:00:00,46.8,40.3,30.04,SW,225,4.9,6.7,78,0.00,,,0.00,WUHU216HW,2013-02-14 15:00:00,
2013-02-14 09:05:00,47.5,40.0,30.04,SSW,203,7.6,7.6,75,0.00,,,0.00,WUHU216HW,2013-02-14 15:05:00,
2013-02-14 09:10:00,47.9,40.0,30.04,SSW,203,5.6,8.5,74,0.00,,,0.00,WUHU216HW,2013-02-14 15:10:00,
2013-02-14 09:15:00,48.6,40.0,30.04,SW,225,7.4,8.5,72,0.00,,,0.00,WUHU216HW,2013-02-14 15:15:00,
2013-02-14 09:20:00,49.1,39.4,30.04,SW,225,8.1,8.1,69,0.00,,,0.00,WUHU216HW,2013-02-14 15:20:00,
2013-02-14 09:25:00,49.7,40.3,30.04,SW,225,3.4,9.2,70,0.00,,,0.00,WUHU216HW,2013-02-14 15:25:00,
2013-02-14 09:30:00,50.0,39.9,30.04,SW,225,4.9,10.5,68,0.00,,,0.00,WUHU216HW,2013-02-14 15:30:00,
2013-02-14 09:35:00,50.6,40.1,30.04,WSW,248,6.3,10.5,67,0.00,,,0.00,WUHU216HW,2013-02-14 15:35:00,
2013-02-14 09:40:00,51.1,41.0,30.04,SW,225,6.9,9.4,68,0.00,,,0.00,WUHU216HW,2013-02-14 15:40:00,
2013-02-14 09:45:00,51.8,41.2,30.04,SW,225,8.9,9.6,67,0.00,,,0.00,WUHU216HW,2013-02-14 15:45:00,
2013-02-14 09:50:00,52.2,41.1,30.04,SW,225,4.0,11.0,66,0.00,,,0.00,WUHU216HW,2013-02-14 15:50:00,
2013-02-14 09:55:00,52.6,40.7,30.04,SW,225,7.6,12.1,64,0.00,,,0.00,WUHU216HW,2013-02-14 15:55:00,
2013-02-14 10:00:00,52.4,40.5,30.04,SW,225,6.9,12.1,64,0.00,,,0.00,WUHU216HW,2013-02-14 16:00:00,
2013-02-14 10:05:00,52.9,41.4,30.04,SSW,203,7.2,11.4,65,0.00,,,0.00,WUHU216HW,2013-02-14 16:05:00,
2013-02-14 10:10:00,53.3,42.2,30.04,WNW,293,4.5,10.5,66,0.00,,,0.00,WUHU216HW,2013-02-14 16:10:00,
2013-02-14 10:15:00,54.2,42.7,30.04,SW,225,6.9,9.6,65,0.00,,,0.00,WUHU216HW,2013-02-14 16:15:00,
2013-02-14 10:20:00,54.5,42.2,30.04,WSW,248,4.0,10.7,63,0.00,,,0.00,WUHU216HW,2013-02-14 16:20:00,
2013-02-14 10:25:00,54.7,42.8,30.04,West,270,6.3,10.7,64,0.00,,,0.00,WUHU216HW,2013-02-14 16:25:00,
2013-02-14 10:30:00,55.4,42.6,30.04,SW,225,3.4,8.7,62,0.00,,,0.00,WUHU216HW,2013-02-14 16:30:00,
2013-02-14 10:35:00,55.8,42.1,30.04,SW,225,8.5,10.5,60,0.00,,,0.00,WUHU216HW,2013-02-14 16:35:00,
2013-02-14 10:40:00,55.8,41.7,30.03,SW,225,8.1,12.3,59,0.00,,,0.00,WUHU216HW,2013-02-14 16:40:00,
2013-02-14 10:45:00,56.3,43.0,30.04,SSW,203,5.1,12.3,61,0.00,,,0.00,WUHU216HW,2013-02-14 16:45:00,
2013-02-14 10:50:00,56.9,42.8,30.04,SSW,203,6.9,10.3,59,0.00,,,0.00,WUHU216HW,2013-02-14 16:50:00,
2013-02-14 10:55:00,57.6,43.4,30.04,SSW,203,10.5,10.5,59,0.00,,,0.00,WUHU216HW,2013-02-14 16:55:00,
2013-02-14 11:00:00,57.6,42.5,30.03,SW,225,7.8,10.5,57,0.00,,,0.00,WUHU216HW,2013-02-14 17:00:00,
2013-02-14 11:05:00,57.8,43.1,30.03,West,270,5.6,10.5,58,0.00,,,0.00,WUHU216HW,2013-02-14 17:05:00,
2013-02-14 11:10:00,58.7,43.9,30.03,West,270,4.0,8.3,58,0.00,,,0.00,WUHU216HW,2013-02-14 17:10:00,
2013-02-14 11:15:00,59.0,42.8,30.03,South,180,8.5,8.9,55,0.00,,,0.00,WUHU216HW,2013-02-14 17:15:00,
2013-02-14 11:20:00,58.7,43.0,30.03,SW,225,3.8,11.0,56,0.00,,,0.00,WUHU216HW,2013-02-14 17:20:00,
2013-02-14 11:25:00,59.6,44.3,30.03,SSW,203,5.4,11.0,57,0.00,,,0.00,WUHU216HW,2013-02-14 17:25:00,
2013-02-14 11:30:00,59.8,43.6,30.02,West,270,5.4,9.6,55,0.00,,,0.00,WUHU216HW,2013-02-14 17:30:00,
2013-02-14 11:35:00,60.1,43.4,30.02,SSW,203,7.6,9.6,54,0.00,,,0.00,WUHU216HW,2013-02-14 17:35:00,
2013-02-14 11:40:00,59.8,43.0,30.02,SW,225,7.2,9.8,54,0.00,,,0.00,WUHU216HW,2013-02-14 17:40:00,
2013-02-14 11:45:00,60.1,43.4,30.02,SW,225,4.7,9.8,54,0.00,,,0.00,WUHU216HW,2013-02-14 17:45:00,
2013-02-14 11:50:00,60.8,43.6,30.02,SSW,203,8.3,9.6,53,0.00,,,0.00,WUHU216HW,2013-02-14 17:50:00,
2013-02-14 11:54:00,61.0,43.7,30.01,SW,225,4.3,8.7,53,0.00,,,0.00,WUHU216HW,2013-02-14 17:54:00,
2013-02-14 11:59:00,61.6,43.7,30.01,SW,225,5.4,8.7,52,0.00,,,0.00,WUHU216HW,2013-02-14 17:59:00,
2013-02-14 12:04:00,62.5,44.6,30.01,West,270,4.7,8.5,52,0.00,,,0.00,WUHU216HW,2013-02-14 18:04:00,
2013-02-14 12:09:00,63.0,44.1,30.01,WSW,248,4.3,7.2,50,0.00,,,0.00,WUHU216HW,2013-02-14 18:09:00,
2013-02-14 12:14:00,63.4,44.4,30.01,SSW,203,6.3,7.8,50,0.00,,,0.00,WUHU216HW,2013-02-14 18:14:00,
2013-02-14 12:19:00,63.5,44.0,30.00,West,270,5.6,9.2,49,0.00,,,0.00,WUHU216HW,2013-02-14 18:19:00,
2013-02-14 12:24:00,64.3,44.7,30.00,WNW,293,4.0,9.2,49,0.00,,,0.00,WUHU216HW,2013-02-14 18:24:00,
2013-02-14 12:29:00,64.8,44.6,30.00,SW,225,8.3,9.8,48,0.00,,,0.00,WUHU216HW,2013-02-14 18:29:00,
2013-02-14 12:34:00,64.8,44.6,30.00,WSW,248,4.5,9.8,48,0.00,,,0.00,WUHU216HW,2013-02-14 18:34:00,
2013-02-14 12:39:00,65.2,43.7,30.00,SSW,203,4.5,8.1,46,0.00,,,0.00,WUHU216HW,2013-02-14 18:39:00,
2013-02-14 12:44:00,65.2,43.7,29.99,SW,225,4.0,8.1,46,0.00,,,0.00,WUHU216HW,2013-02-14 18:44:00,
2013-02-14 12:49:00,65.5,44.6,29.99,WSW,248,3.4,7.8,47,0.00,,,0.00,WUHU216HW,2013-02-14 18:49:00,
2013-02-14 12:54:00,65.7,44.3,29.99,SW,225,4.3,8.5,46,0.00,,,0.00,WUHU216HW,2013-02-14 18:54:00,
2013-02-14 12:59:00,66.1,44.7,29.99,SW,225,4.7,8.9,46,0.00,,,0.00,WUHU216HW,2013-02-14 18:59:00,
2013-02-14 13:04:00,66.6,44.6,29.98,WSW,248,5.6,8.9,45,0.00,,,0.00,WUHU216HW,2013-02-14 19:04:00,
2013-02-14 13:09:00,67.1,45.0,29.98,WSW,248,3.1,7.4,45,0.00,,,0.00,WUHU216HW,2013-02-14 19:09:00,
2013-02-14 13:14:00,67.3,44.0,29.98,WSW,248,4.7,7.4,43,0.00,,,0.00,WUHU216HW,2013-02-14 19:14:00,
2013-02-14 13:19:00,67.1,43.8,29.97,West,270,2.7,7.4,43,0.00,,,0.00,WUHU216HW,2013-02-14 19:19:00,
2013-02-14 13:24:00,67.5,42.9,29.97,South,180,7.6,7.6,41,0.00,,,0.00,WUHU216HW,2013-02-14 19:24:00,
2013-02-14 13:29:00,67.5,42.9,29.97,SW,225,4.0,8.7,41,0.00,,,0.00,WUHU216HW,2013-02-14 19:29:00,
2013-02-14 13:34:00,67.7,43.1,29.96,SSW,203,5.8,8.7,41,0.00,,,0.00,WUHU216HW,2013-02-14 19:34:00,
2013-02-14 13:39:00,68.0,42.8,29.96,SW,225,5.8,10.5,40,0.00,,,0.00,WUHU216HW,2013-02-14 19:39:00,
2013-02-14 13:44:00,68.2,44.2,29.96,SSW,203,4.0,10.5,42,0.00,,,0.00,WUHU216HW,2013-02-14 19:44:00,
2013-02-14 13:49:00,68.2,44.2,29.96,SSW,203,4.0,9.2,42,0.00,,,0.00,WUHU216HW,2013-02-14 19:49:00,
2013-02-14 13:54:00,68.8,44.1,29.95,WSW,248,3.8,9.2,41,0.00,,,0.00,WUHU216HW,2013-02-14 19:54:00,
2013-02-14 13:59:00,69.3,44.0,29.95,WSW,248,3.4,8.5,40,0.00,,,0.00,WUHU216HW,2013-02-14 19:59:00,
2013-02-14 14:04:00,69.5,42.7,29.95,SW,225,7.6,9.6,38,0.00,,,0.00,WUHU216HW,2013-02-14 20:04:00,
2013-02-14 14:09:00,69.5,44.1,29.94,SW,225,3.6,9.6,40,0.00,,,0.00,WUHU216HW,2013-02-14 20:09:00,
2013-02-14 14:14:00,69.5,42.0,29.94,SW,225,4.7,9.6,37,0.00,,,0.00,WUHU216HW,2013-02-14 20:14:00,
2013-02-14 14:19:00,69.3,42.5,29.95,WSW,248,1.8,9.6,38,0.00,,,0.00,WUHU216HW,2013-02-14 20:19:00,
2013-02-14 14:24:00,70.0,42.4,29.94,WSW,248,4.7,7.6,37,0.00,,,0.00,WUHU216HW,2013-02-14 20:24:00,
2013-02-14 14:29:00,70.4,41.2,29.95,South,180,7.6,9.8,35,0.00,,,0.00,WUHU216HW,2013-02-14 20:29:00,
2013-02-14 14:34:00,70.0,41.0,29.95,SW,225,6.7,9.8,35,0.00,,,0.00,WUHU216HW,2013-02-14 20:34:00,
2013-02-14 14:39:00,70.4,42.0,29.94,SW,225,2.5,9.4,36,0.00,,,0.00,WUHU216HW,2013-02-14 20:39:00,
2013-02-14 14:44:00,70.7,41.6,29.94,SSW,203,7.8,7.8,35,0.00,,,0.00,WUHU216HW,2013-02-14 20:44:00,
2013-02-14 14:49:00,70.6,41.4,29.94,SSW,203,7.6,9.4,35,0.00,,,0.00,WUHU216HW,2013-02-14 20:49:00,
2013-02-14 14:54:00,70.2,42.6,29.94,South,180,3.4,9.4,37,0.00,,,0.00,WUHU216HW,2013-02-14 20:54:00,
2013-02-14 14:59:00,70.6,40.0,29.94,SW,225,6.9,9.4,33,0.00,,,0.00,WUHU216HW,2013-02-14 20:59:00,
2013-02-14 15:04:00,70.2,41.1,29.94,SSW,203,6.7,9.4,35,0.00,,,0.00,WUHU216HW,2013-02-14 21:04:00,
2013-02-14 15:09:00,70.7,41.6,29.94,SSW,203,2.5,8.7,35,0.00,,,0.00,WUHU216HW,2013-02-14 21:09:00,
2013-02-14 15:14:00,71.3,40.6,29.94,SW,225,6.5,7.6,33,0.00,,,0.00,WUHU216HW,2013-02-14 21:14:00,
2013-02-14 15:19:00,70.7,40.9,29.94,SSE,158,2.9,7.8,34,0.00,,,0.00,WUHU216HW,2013-02-14 21:19:00,
2013-02-14 15:24:00,70.9,41.8,29.94,SW,225,4.5,7.8,35,0.00,,,0.00,WUHU216HW,2013-02-14 21:24:00,
2013-02-14 15:29:00,70.9,41.8,29.94,SW,225,3.4,7.8,35,0.00,,,0.00,WUHU216HW,2013-02-14 21:29:00,
2013-02-14 15:34:00,71.3,42.0,29.94,SSW,203,9.8,9.8,35,0.00,,,0.00,WUHU216HW,2013-02-14 21:34:00,
2013-02-14 15:39:00,70.2,40.3,29.94,SW,225,4.7,9.8,34,0.00,,,0.00,WUHU216HW,2013-02-14 21:39:00,
2013-02-14 15:44:00,70.2,41.1,29.94,South,180,4.0,9.8,35,0.00,,,0.00,WUHU216HW,2013-02-14 21:44:00,
2013-02-14 15:49:00,70.6,41.4,29.94,WSW,248,6.7,6.7,35,0.00,,,0.00,WUHU216HW,2013-02-14 21:49:00,
2013-02-14 15:54:00,71.1,40.4,29.94,West,270,5.6,8.5,33,0.00,,,0.00,WUHU216HW,2013-02-14 21:54:00,
2013-02-14 15:59:00,71.3,41.3,29.94,WSW,248,3.4,8.5,34,0.00,,,0.00,WUHU216HW,2013-02-14 21:59:00,
2013-02-14 16:04:00,71.3,41.3,29.94,SSW,203,3.1,6.7,34,0.00,,,0.00,WUHU216HW,2013-02-14 22:04:00,
2013-02-14 16:09:00,70.9,40.2,29.94,WSW,248,3.6,7.6,33,0.00,,,0.00,WUHU216HW,2013-02-14 22:09:00,
2013-02-14 16:14:00,70.2,39.6,29.94,WSW,248,3.1,8.1,33,0.00,,,0.00,WUHU216HW,2013-02-14 22:14:00,
2013-02-14 16:19:00,70.4,39.8,29.94,SW,225,5.1,10.5,33,0.00,,,0.00,WUHU216HW,2013-02-14 22:19:00,
2013-02-14 16:24:00,70.2,39.6,29.94,SSW,203,5.8,10.5,33,0.00,,,0.00,WUHU216HW,2013-02-14 22:24:00,
2013-02-14 16:29:00,70.2,40.3,29.94,SW,225,3.8,6.0,34,0.00,,,0.00,WUHU216HW,2013-02-14 22:29:00,
2013-02-14 16:34:00,70.7,40.2,29.94,WSW,248,3.1,4.7,33,0.00,,,0.00,WUHU216HW,2013-02-14 22:34:00,
2013-02-14 16:39:00,70.9,40.2,29.94,WSW,248,2.5,5.8,33,0.00,,,0.00,WUHU216HW,2013-02-14 22:39:00,
2013-02-14 16:44:00,70.9,41.1,29.94,SW,225,2.0,5.8,34,0.00,,,0.00,WUHU216HW,2013-02-14 22:44:00,
2013-02-14 16:49:00,71.3,42.0,29.94,SSE,158,2.9,4.0,35,0.00,,,0.00,WUHU216HW,2013-02-14 22:49:00,
2013-02-14 16:54:00,70.9,40.2,29.94,SSW,203,4.7,6.3,33,0.00,,,0.00,WUHU216HW,2013-02-14 22:54:00,
2013-02-14 16:59:00,70.7,39.3,29.94,WSW,248,2.5,6.3,32,0.00,,,0.00,WUHU216HW,2013-02-14 22:59:00,
2013-02-14 17:04:00,70.4,39.8,29.94,WSW,248,4.0,5.4,33,0.00,,,0.00,WUHU216HW,2013-02-14 23:04:00,
2013-02-14 17:09:00,70.0,39.4,29.94,WSW,248,2.0,5.4,33,0.00,,,0.00,WUHU216HW,2013-02-14 23:09:00,
2013-02-14 17:14:00,69.5,39.0,29.94,SSW,203,3.8,5.4,33,0.00,,,0.00,WUHU216HW,2013-02-14 23:14:00,
2013-02-14 17:19:00,69.1,39.4,29.94,SSW,203,4.0,5.4,34,0.00,,,0.00,WUHU216HW,2013-02-14 23:19:00,
2013-02-14 17:24:00,68.6,38.9,29.94,SW,225,5.4,6.0,34,0.00,,,0.00,WUHU216HW,2013-02-14 23:24:00,
2013-02-14 17:29:00,68.0,39.2,29.94,SSW,203,2.9,6.3,35,0.00,,,0.00,WUHU216HW,2013-02-14 23:29:00,
2013-02-14 17:34:00,67.7,38.9,29.94,SSW,203,3.4,6.3,35,0.00,,,0.00,WUHU216HW,2013-02-14 23:34:00,
2013-02-14 17:39:00,67.7,39.6,29.94,SSW,203,1.8,4.3,36,0.00,,,0.00,WUHU216HW,2013-02-14 23:39:00,
2013-02-14 17:44:00,67.5,39.4,29.94,SSW,203,2.5,4.3,36,0.00,,,0.00,WUHU216HW,2013-02-14 23:44:00,
2013-02-14 17:49:00,67.3,39.2,29.94,SSW,203,2.0,3.6,36,0.00,,,0.00,WUHU216HW,2013-02-14 23:49:00,
2013-02-14 17:54:00,67.0,39.7,29.94,SSW,203,0.9,2.7,37,0.00,,,0.00,WUHU216HW,2013-02-14 23:54:00,
2013-02-14 17:59:00,67.1,39.9,29.94,SSE,158,0.7,2.2,37,0.00,,,0.00,WUHU216HW,2013-02-14 23:59:00,
2013-02-14 18:04:00,67.0,39.0,29.95,SSE,158,1.1,2.0,36,0.00,,,0.00,WUHU216HW,2013-02-15 00:04:00,
2013-02-14 18:09:00,66.6,37.9,29.95,SSE,158,1.8,1.8,35,0.00,,,0.00,WUHU216HW,2013-02-15 00:09:00,
2013-02-14 18:14:00,65.9,38.0,29.95,SE,135,1.1,1.8,36,0.00,,,0.00,WUHU216HW,2013-02-15 00:14:00,
2013-02-14 18:19:00,65.2,37.4,29.95,SE,135,1.1,1.8,36,0.00,,,0.00,WUHU216HW,2013-02-15 00:19:00,
2013-02-14 18:24:00,64.8,37.1,29.95,SE,135,1.1,1.3,36,0.00,,,0.00,WUHU216HW,2013-02-15 00:24:00,
2013-02-14 18:29:00,64.4,36.7,29.95,SSE,158,0.9,1.3,36,0.00,,,0.00,WUHU216HW,2013-02-15 00:29:00,
2013-02-14 18:34:00,64.3,36.5,29.95,SE,135,2.0,2.0,36,0.00,,,0.00,WUHU216HW,2013-02-15 00:34:00,
2013-02-14 18:39:00,63.5,36.6,29.96,SE,135,2.5,2.7,37,0.00,,,0.00,WUHU216HW,2013-02-15 00:39:00,
2013-02-14 18:44:00,63.2,36.3,29.95,SSE,158,2.0,2.7,37,0.00,,,0.00,WUHU216HW,2013-02-15 00:44:00,
2013-02-14 18:49:00,63.0,36.2,29.96,ESE,113,1.6,2.5,37,0.00,,,0.00,WUHU216HW,2013-02-15 00:49:00,
2013-02-14 18:54:00,62.6,36.5,29.96,ESE,113,1.1,2.5,38,0.00,,,0.00,WUHU216HW,2013-02-15 00:54:00,
2013-02-14 18:59:00,62.3,36.2,29.96,ESE,113,1.1,2.0,38,0.00,,,0.00,WUHU216HW,2013-02-15 00:59:00,
2013-02-14 19:04:00,61.9,36.6,29.96,ESE,113,1.8,1.8,39,0.00,,,0.00,WUHU216HW,2013-02-15 01:04:00,
2013-02-14 19:09:00,61.6,36.3,29.96,ESE,113,2.5,2.5,39,0.00,,,0.00,WUHU216HW,2013-02-15 01:09:00,
2013-02-14 19:14:00,61.2,36.7,29.96,ESE,113,2.5,2.5,40,0.00,,,0.00,WUHU216HW,2013-02-15 01:14:00,
2013-02-14 19:19:00,61.2,36.7,29.96,ESE,113,2.5,2.5,40,0.00,,,0.00,WUHU216HW,2013-02-15 01:19:00,
2013-02-14 19:24:00,60.8,36.9,29.96,ESE,113,2.2,2.9,41,0.00,,,0.00,WUHU216HW,2013-02-15 01:24:00,
2013-02-14 19:29:00,60.7,36.8,29.96,SE,135,3.4,3.8,41,0.00,,,0.00,WUHU216HW,2013-02-15 01:29:00,
2013-02-14 19:34:00,60.3,36.5,29.96,SE,135,2.2,3.8,41,0.00,,,0.00,WUHU216HW,2013-02-15 01:34:00,
2013-02-14 19:39:00,60.1,36.9,29.96,SE,135,2.5,3.4,42,0.00,,,0.00,WUHU216HW,2013-02-15 01:39:00,
2013-02-14 19:44:00,60.1,36.9,29.96,ESE,113,2.5,3.4,42,0.00,,,0.00,WUHU216HW,2013-02-15 01:44:00,
2013-02-14 19:49:00,59.6,37.0,29.96,ESE,113,2.9,3.4,43,0.00,,,0.00,WUHU216HW,2013-02-15 01:49:00,
2013-02-14 19:54:00,59.0,36.5,29.96,ESE,113,2.5,2.9,43,0.00,,,0.00,WUHU216HW,2013-02-15 01:54:00,
2013-02-14 19:59:00,58.7,36.7,29.96,ESE,113,1.8,2.9,44,0.00,,,0.00,WUHU216HW,2013-02-15 01:59:00,
2013-02-14 20:04:00,58.7,36.7,29.96,SE,135,3.6,3.6,44,0.00,,,0.00,WUHU216HW,2013-02-15 02:04:00,
2013-02-14 20:09:00,58.7,36.7,29.96,SE,135,3.1,3.8,44,0.00,,,0.00,WUHU216HW,2013-02-15 02:09:00,
2013-02-14 20:14:00,58.5,37.2,29.96,SE,135,2.9,3.8,45,0.00,,,0.00,WUHU216HW,2013-02-15 02:14:00,
2013-02-14 20:19:00,58.3,37.0,29.96,SSE,158,2.7,3.4,45,0.00,,,0.00,WUHU216HW,2013-02-15 02:19:00,
2013-02-14 20:24:00,58.1,36.8,29.97,SE,135,2.0,3.4,45,0.00,,,0.00,WUHU216HW,2013-02-15 02:24:00,
2013-02-14 20:29:00,58.0,36.6,29.97,SE,135,2.2,2.7,45,0.00,,,0.00,WUHU216HW,2013-02-15 02:29:00,
2013-02-14 20:34:00,57.8,37.1,29.97,East,90,2.5,2.5,46,0.00,,,0.00,WUHU216HW,2013-02-15 02:34:00,
2013-02-14 20:39:00,57.2,36.5,29.98,East,90,2.0,2.5,46,0.00,,,0.00,WUHU216HW,2013-02-15 02:39:00,
2013-02-14 20:44:00,56.7,36.6,29.98,ESE,113,1.8,2.5,47,0.00,,,0.00,WUHU216HW,2013-02-15 02:44:00,
2013-02-14 20:49:00,56.5,36.5,29.98,ESE,113,1.3,2.2,47,0.00,,,0.00,WUHU216HW,2013-02-15 02:49:00,
2013-02-14 20:54:00,56.5,36.5,29.98,SE,135,2.7,2.7,47,0.00,,,0.00,WUHU216HW,2013-02-15 02:54:00,
2013-02-14 20:59:00,56.5,36.5,29.97,SE,135,2.0,2.7,47,0.00,,,0.00,WUHU216HW,2013-02-15 02:59:00,
2013-02-14 21:04:00,56.5,36.5,29.97,SE,135,2.5,3.4,47,0.00,,,0.00,WUHU216HW,2013-02-15 03:04:00,
2013-02-14 21:09:00,56.5,36.5,29.97,SE,135,2.5,3.4,47,0.00,,,0.00,WUHU216HW,2013-02-15 03:09:00,
2013-02-14 21:14:00,56.3,36.3,29.97,SE,135,2.5,3.4,47,0.00,,,0.00,WUHU216HW,2013-02-15 03:14:00,
2013-02-14 21:19:00,56.3,36.8,29.97,ESE,113,1.8,3.1,48,0.00,,,0.00,WUHU216HW,2013-02-15 03:19:00,
2013-02-14 21:24:00,56.2,36.6,29.97,ESE,113,2.5,2.9,48,0.00,,,0.00,WUHU216HW,2013-02-15 03:24:00,
2013-02-14 21:29:00,56.0,36.5,29.97,ESE,113,2.5,2.7,48,0.00,,,0.00,WUHU216HW,2013-02-15 03:29:00,
2013-02-14 21:34:00,55.6,36.2,29.98,ESE,113,2.5,2.7,48,0.00,,,0.00,WUHU216HW,2013-02-15 03:34:00,
2013-02-14 21:39:00,55.3,35.8,29.98,ESE,113,2.5,2.7,48,0.00,,,0.00,WUHU216HW,2013-02-15 03:39:00,
2013-02-14 21:44:00,55.1,36.2,29.98,ESE,113,3.1,3.1,49,0.00,,,0.00,WUHU216HW,2013-02-15 03:44:00,
2013-02-14 21:49:00,54.7,35.9,29.98,East,90,1.8,3.1,49,0.00,,,0.00,WUHU216HW,2013-02-15 03:49:00,
2013-02-14 21:54:00,54.4,35.0,29.97,ESE,113,2.5,3.1,48,0.00,,,0.00,WUHU216HW,2013-02-15 03:54:00,
2013-02-14 21:59:00,54.4,35.0,29.97,ESE,113,2.5,2.5,48,0.00,,,0.00,WUHU216HW,2013-02-15 03:59:00,
2013-02-14 22:04:00,54.5,35.7,29.97,ESE,113,2.7,3.4,49,0.00,,,0.00,WUHU216HW,2013-02-15 04:04:00,
2013-02-14 22:09:00,54.5,35.7,29.97,ESE,113,2.9,3.8,49,0.00,,,0.00,WUHU216HW,2013-02-15 04:09:00,
2013-02-14 22:14:00,54.4,35.0,29.97,ESE,113,3.4,3.8,48,0.00,,,0.00,WUHU216HW,2013-02-15 04:14:00,
2013-02-14 22:19:00,54.4,35.0,29.98,ESE,113,3.4,3.6,48,0.00,,,0.00,WUHU216HW,2013-02-15 04:19:00,
2013-02-14 22:24:00,54.2,34.8,29.98,ESE,113,2.7,3.6,48,0.00,,,0.00,WUHU216HW,2013-02-15 04:24:00,
2013-02-14 22:29:00,54.2,34.8,29.98,ESE,113,2.5,3.1,48,0.00,,,0.00,WUHU216HW,2013-02-15 04:29:00,
2013-02-14 22:34:00,54.0,34.7,29.98,East,90,1.8,3.1,48,0.00,,,0.00,WUHU216HW,2013-02-15 04:34:00,
2013-02-14 22:39:00,53.6,34.4,29.98,East,90,1.1,2.5,48,0.00,,,0.00,WUHU216HW,2013-02-15 04:39:00,
2013-02-14 22:44:00,53.5,34.2,29.98,ESE,113,1.1,1.8,48,0.00,,,0.00,WUHU216HW,2013-02-15 04:44:00,
2013-02-14 22:49:00,53.5,34.2,29.98,ESE,113,1.1,1.8,48,0.00,,,0.00,WUHU216HW,2013-02-15 04:49:00,
2013-02-14 22:54:00,53.3,34.0,29.99,ESE,113,1.1,1.8,48,0.00,,,0.00,WUHU216HW,2013-02-15 04:54:00,
2013-02-14 22:59:00,53.3,34.6,29.99,East,90,0.7,1.3,49,0.00,,,0.00,WUHU216HW,2013-02-15 04:59:00,
2013-02-14 23:00:00,53.3,34.6,29.99,East,90,0.7,1.3,49,0.00,,,0.00,WUHU216HW,2013-02-15 05:00:00,
2013-02-14 23:05:00,53.1,34.4,29.99,ENE,68,1.1,1.3,49,0.00,,,0.00,WUHU216HW,2013-02-15 05:05:00,
2013-02-14 23:10:00,53.1,34.4,29.99,ENE,68,0.7,1.1,49,0.00,,,0.00,WUHU216HW,2013-02-15 05:10:00,
2013-02-14 23:15:00,53.1,34.4,30.00,ENE,68,0.0,1.1,49,0.00,,,0.00,WUHU216HW,2013-02-15 05:15:00,
2013-02-14 23:20:00,53.1,34.4,30.00,ENE,68,0.0,0.4,49,0.00,,,0.00,WUHU216HW,2013-02-15 05:20:00,
2013-02-14 23:25:00,52.9,34.3,30.00,North,0,0.0,0.0,49,0.00,,,0.00,WUHU216HW,2013-02-15 05:25:00,
2013-02-14 23:30:00,52.2,34.2,30.00,North,0,0.7,1.1,50,0.00,,,0.00,WUHU216HW,2013-02-15 05:30:00,
2013-02-14 23:35:00,52.0,34.5,30.00,North,0,1.6,1.6,51,0.00,,,0.00,WUHU216HW,2013-02-15 05:35:00,
2013-02-14 23:40:00,51.8,34.3,30.00,NNW,338,1.1,1.8,51,0.00,,,0.00,WUHU216HW,2013-02-15 05:40:00,
2013-02-14 23:45:00,51.5,34.4,30.01,NNW,338,1.8,2.0,52,0.00,,,0.00,WUHU216HW,2013-02-15 05:45:00,
2013-02-14 23:50:00,51.3,34.3,30.01,West,270,1.3,2.0,52,0.00,,,0.00,WUHU216HW,2013-02-15 05:50:00,
2013-02-14 23:55:00,51.1,34.1,30.01,West,270,1.1,2.2,52,0.00,,,0.00,WUHU216HW,2013-02-15 05:55:00,